Hot Springs Natl Park, AR

10:26 AM CST on December 08, 2016 (GMT -0600)
Hot Springs Memorial

Weather History for KHOT - February, 2013

Change the Weather History Date:

Wednesday, February 13, 2013

  Actual Average Record
Temperature  
Mean Temperature 46 °F -  
Max Temperature 53 °F 54 °F 80 °F (1962)
Min Temperature 39 °F 33 °F 16 °F (1958)
Degree Days  
Heating Degree Days 19    
Moisture  
Dew Point 35 °F    
Average Humidity 77    
Maximum Humidity 93    
Minimum Humidity 43    
Precipitation  
Precipitation 0.00 in - - ()
Sea Level Pressure  
Sea Level Pressure 29.99 in    
Wind  
Wind Speed 4 mph (WNW)    
Max Wind Speed 9 mph    
Max Gust Speed -    
Visibility 10 miles    
Events Rain    
Averages and records for this station are not official NWS values.
T = Trace of Precipitation, MM = Missing Value Source: NWS Daily Summary

Daily Weather History Graph

Daily Weather History Graph

Search for Another Location

Airport or City:

Trip Planner

Search our weather history database for the weather conditions in past years. The results will help you decide how hot, cold, wet, or windy it might be!

Date:

Astronomy

Feb. 13, 2013 Rise Set
Actual Time 6:59 AM CST 5:54 PM CST
Civil Twilight 6:33 AM CST 6:19 PM CST
Nautical Twilight 6:04 AM CST 6:49 PM CST
Astronomical Twilight 5:34 AM CST 7:18 PM CST
Moon 8:40 AM CST (2/13) 9:44 PM CST (2/13)
Length of Visible Light 11h 46m
Length of Day
10h 54m
Waxing Crescent, 14% of the Moon is Illuminated
Feb 13
Waxing Crescent
Feb 17
First Quarter
Feb 25
Full
Mar 4
Last Quarter
Mar 11
New

Hourly Weather History & Observations

Time (CST) Temp. Windchill Dew Point Humidity Pressure Visibility Wind Dir Wind Speed Gust Speed Precip Events Conditions
12:24 AM 41.0 °F 35.8 °F 37.4 °F 87% 29.89 in 6.0 mi North 8.1 mph - 0.00 in Rain Light Rain
12:53 AM 39.9 °F 35.1 °F 37.0 °F 89% 29.91 in 10.0 mi NNW 6.9 mph - 0.00 in Rain Light Rain
1:53 AM 39.0 °F 34.8 °F 37.0 °F 93% 29.92 in 10.0 mi NW 5.8 mph - 0.00 in   Overcast
2:53 AM 39.0 °F 35.7 °F 36.0 °F 89% 29.92 in 10.0 mi NNW 4.6 mph - N/A   Overcast
3:53 AM 39.0 °F 36.8 °F 36.0 °F 89% 29.93 in 10.0 mi NW 3.5 mph - N/A   Overcast
4:37 AM 39.2 °F 35.9 °F 35.6 °F 87% 29.94 in 10.0 mi NNW 4.6 mph - N/A   Overcast
4:53 AM 39.0 °F - 36.0 °F 89% 29.94 in 10.0 mi Calm Calm - N/A   Overcast
5:21 AM 39.2 °F 37.0 °F 35.6 °F 87% 29.96 in 10.0 mi NW 3.5 mph - N/A   Mostly Cloudy
5:34 AM 39.2 °F - 35.6 °F 87% 29.96 in 10.0 mi Calm Calm - N/A   Overcast
5:43 AM 39.2 °F - 35.6 °F 87% 29.96 in 10.0 mi Calm Calm - N/A   Overcast
5:50 AM 39.2 °F - 35.6 °F 87% 29.96 in 10.0 mi Calm Calm - N/A   Mostly Cloudy
5:53 AM 39.0 °F - 35.1 °F 86% 29.96 in 10.0 mi Calm Calm - N/A   Mostly Cloudy
6:20 AM 39.2 °F 35.9 °F 35.6 °F 87% 29.98 in 10.0 mi NW 4.6 mph - N/A   Mostly Cloudy
6:50 AM 39.2 °F 35.9 °F 35.6 °F 87% 29.99 in 10.0 mi Variable 4.6 mph - N/A   Overcast
6:53 AM 39.0 °F 35.7 °F 36.0 °F 89% 30.00 in 10.0 mi WNW 4.6 mph - N/A   Overcast
7:53 AM 39.9 °F - 36.0 °F 86% 30.02 in 10.0 mi Calm Calm - N/A   Overcast
8:53 AM 41.0 °F 39.0 °F 36.0 °F 82% 30.06 in 10.0 mi WNW 3.5 mph - N/A   Overcast
9:53 AM 41.0 °F 37.1 °F 35.1 °F 79% 30.07 in 10.0 mi NW 5.8 mph - N/A   Overcast
10:53 AM 44.1 °F 39.0 °F 36.0 °F 73% 30.08 in 10.0 mi NW 9.2 mph - N/A   Overcast
11:53 AM 45.0 °F 42.6 °F 36.0 °F 71% 30.06 in 10.0 mi Variable 4.6 mph - N/A   Overcast
12:53 PM 46.9 °F - 36.0 °F 66% 30.04 in 10.0 mi WSW 8.1 mph - N/A   Mostly Cloudy
1:16 PM 48.2 °F - 35.6 °F 62% 30.03 in 10.0 mi Variable 5.8 mph - N/A   Scattered Clouds
1:53 PM 50.0 °F - 35.1 °F 57% 30.01 in 10.0 mi Variable 3.5 mph - N/A   Mostly Cloudy
2:53 PM 52.0 °F - 34.0 °F 50% 29.99 in 10.0 mi WSW 9.2 mph - N/A   Mostly Cloudy
3:53 PM 52.0 °F - 33.1 °F 49% 29.98 in 10.0 mi WSW 4.6 mph - N/A   Clear
4:53 PM 53.1 °F - 33.1 °F 47% 29.98 in 10.0 mi West 5.8 mph - N/A   Clear
5:53 PM 51.1 °F - 28.9 °F 43% 29.99 in 10.0 mi Calm Calm - N/A   Clear
6:53 PM 46.0 °F 44.8 °F 34.0 °F 63% 30.00 in 10.0 mi South 3.5 mph - N/A   Clear
7:53 PM 44.1 °F - 36.0 °F 73% 30.01 in 10.0 mi Calm Calm - N/A   Clear
8:53 PM 42.1 °F - 35.1 °F 76% 30.02 in 10.0 mi Calm Calm - N/A   Clear
9:53 PM 43.0 °F 40.3 °F 35.1 °F 74% 30.03 in 10.0 mi Variable 4.6 mph - N/A   Clear
10:53 PM 39.0 °F 36.8 °F 35.1 °F 86% 30.04 in 10.0 mi NW 3.5 mph - N/A   Clear
11:53 PM 39.0 °F - 35.1 °F 86% 30.04 in 10.0 mi Calm Calm - N/A   Clear